Time,TemperatureF,DewpointF,PressureIn,WindDirection,WindDirectionDegrees,WindSpeedMPH,WindSpeedGustMPH,Humidity,HourlyPrecipIn,Conditions,Clouds,dailyrainin,SoftwareType,DateUTC
2013-05-29 00:03:00,54.4,50.9,29.76,SW,225,0.0,0.0,88,0.00,,,0.00,WUHU216HW,2013-05-29 07:03:00,
2013-05-29 00:28:00,53.8,50.3,29.76,ESE,113,0.0,0.0,88,0.00,,,0.00,WUHU216HW,2013-05-29 07:28:00,
2013-05-29 00:33:00,53.8,50.3,29.76,ESE,113,0.0,0.0,88,0.00,,,0.00,WUHU216HW,2013-05-29 07:33:00,
2013-05-29 00:58:00,53.3,50.1,29.75,ENE,68,0.0,0.0,89,0.00,,,0.00,WUHU216HW,2013-05-29 07:58:00,
2013-05-29 01:03:00,53.3,50.1,29.75,ENE,68,0.0,0.0,89,0.00,,,0.00,WUHU216HW,2013-05-29 08:03:00,
2013-05-29 01:28:00,52.9,49.8,29.74,SE,135,0.0,0.0,89,0.00,,,0.00,WUHU216HW,2013-05-29 08:28:00,
2013-05-29 01:33:00,52.9,49.8,29.74,SE,135,0.0,0.0,89,0.00,,,0.00,WUHU216HW,2013-05-29 08:33:00,
2013-05-29 01:58:00,51.5,48.3,29.74,NNE,23,0.0,0.0,89,0.00,,,0.00,WUHU216HW,2013-05-29 08:58:00,
2013-05-29 02:03:00,51.5,48.3,29.74,NNE,23,0.0,0.0,89,0.00,,,0.00,WUHU216HW,2013-05-29 09:03:00,
2013-05-29 02:28:00,50.8,47.6,29.73,NE,45,0.0,0.0,89,0.00,,,0.00,WUHU216HW,2013-05-29 09:28:00,
2013-05-29 02:33:00,50.8,47.6,29.73,NE,45,0.0,0.0,89,0.00,,,0.00,WUHU216HW,2013-05-29 09:33:00,
2013-05-29 02:58:00,49.5,46.1,29.73,SE,135,0.0,0.0,88,0.00,,,0.00,WUHU216HW,2013-05-29 09:58:00,
2013-05-29 03:03:00,49.5,46.1,29.73,SE,135,0.0,0.0,88,0.00,,,0.00,WUHU216HW,2013-05-29 10:03:00,
2013-05-29 03:28:00,49.1,45.7,29.73,SSE,158,0.0,0.0,88,0.00,,,0.00,WUHU216HW,2013-05-29 10:28:00,
2013-05-29 03:33:00,49.1,45.7,29.73,SSE,158,0.0,0.0,88,0.00,,,0.00,WUHU216HW,2013-05-29 10:33:00,
2013-05-29 03:58:00,48.6,45.2,29.73,SSW,203,0.0,0.0,88,0.00,,,0.00,WUHU216HW,2013-05-29 10:58:00,
2013-05-29 04:03:00,48.6,45.2,29.73,SSW,203,0.0,0.0,88,0.00,,,0.00,WUHU216HW,2013-05-29 11:03:00,
2013-05-29 04:28:00,48.1,44.7,29.72,NNE,23,0.0,0.0,88,0.00,,,0.00,WUHU216HW,2013-05-29 11:28:00,
2013-05-29 04:33:00,48.1,44.7,29.72,NNE,23,0.0,0.0,88,0.00,,,0.00,WUHU216HW,2013-05-29 11:33:00,
2013-05-29 04:58:00,47.5,44.5,29.72,SSE,158,0.0,0.0,89,0.00,,,0.00,WUHU216HW,2013-05-29 11:58:00,
2013-05-29 05:03:00,47.5,44.5,29.72,SSE,158,0.0,0.0,89,0.00,,,0.00,WUHU216HW,2013-05-29 12:03:00,
2013-05-29 05:28:00,47.2,44.2,29.70,NE,45,0.9,0.9,89,0.00,,,0.00,WUHU216HW,2013-05-29 12:28:00,
2013-05-29 05:33:00,47.2,44.2,29.70,NE,45,0.9,0.9,89,0.00,,,0.00,WUHU216HW,2013-05-29 12:33:00,
2013-05-29 05:58:00,47.3,44.4,29.70,ESE,113,0.0,0.0,89,0.01,,,0.00,WUHU216HW,2013-05-29 12:58:00,
2013-05-29 06:03:00,47.3,44.4,29.70,ESE,113,0.0,0.0,89,0.01,,,0.02,WUHU216HW,2013-05-29 13:03:00,
2013-05-29 06:08:00,47.3,44.4,29.70,ESE,113,0.0,0.0,89,0.01,,,0.02,WUHU216HW,2013-05-29 13:08:00,
2013-05-29 06:28:00,46.8,44.4,29.70,ENE,68,1.8,1.8,91,0.01,,,0.02,WUHU216HW,2013-05-29 13:28:00,
2013-05-29 06:33:00,46.8,44.4,29.70,ENE,68,1.8,1.8,91,0.01,,,0.02,WUHU216HW,2013-05-29 13:33:00,
2013-05-29 06:58:00,50.8,48.2,29.70,SSW,203,0.4,0.4,91,0.00,,,0.02,WUHU216HW,2013-05-29 13:58:00,
2013-05-29 07:03:00,50.8,48.2,29.70,SSW,203,0.4,0.4,91,0.00,,,0.02,WUHU216HW,2013-05-29 14:03:00,
2013-05-29 07:08:00,50.8,48.2,29.70,SSW,203,0.4,0.4,91,0.00,,,0.02,WUHU216HW,2013-05-29 14:08:00,
2013-05-29 07:28:00,51.7,48.5,29.69,NE,45,1.3,1.3,89,0.00,,,0.02,WUHU216HW,2013-05-29 14:28:00,
2013-05-29 07:33:00,51.7,48.5,29.69,NE,45,1.3,1.3,89,0.00,,,0.02,WUHU216HW,2013-05-29 14:33:00,
2013-05-29 07:58:00,53.6,50.5,29.70,NE,45,0.4,0.4,89,0.00,,,0.02,WUHU216HW,2013-05-29 14:58:00,
2013-05-29 08:03:00,53.5,50.3,29.70,NE,45,0.4,0.4,89,0.00,,,0.02,WUHU216HW,2013-05-29 15:03:00,
2013-05-29 08:08:00,53.5,50.3,29.70,NE,45,0.4,0.4,89,0.00,,,0.02,WUHU216HW,2013-05-29 15:08:00,
2013-05-29 08:28:00,55.3,50.8,29.69,SSW,203,2.5,2.5,85,0.00,,,0.02,WUHU216HW,2013-05-29 15:28:00,
2013-05-29 08:33:00,55.3,50.8,29.69,SSW,203,2.5,2.5,85,0.00,,,0.02,WUHU216HW,2013-05-29 15:33:00,
2013-05-29 08:58:00,58.0,51.5,29.68,NE,45,1.8,1.8,79,0.00,,,0.02,WUHU216HW,2013-05-29 15:58:00,
2013-05-29 09:03:00,58.1,51.7,29.68,North,0,1.8,1.8,79,0.00,,,0.02,WUHU216HW,2013-05-29 16:03:00,
2013-05-29 09:08:00,58.1,51.7,29.68,North,0,1.8,1.8,79,0.00,,,0.02,WUHU216HW,2013-05-29 16:08:00,
2013-05-29 09:28:00,59.8,51.1,29.68,NE,45,1.3,1.3,73,0.00,,,0.02,WUHU216HW,2013-05-29 16:28:00,
2013-05-29 09:33:00,59.8,51.1,29.68,NE,45,1.3,1.3,73,0.00,,,0.02,WUHU216HW,2013-05-29 16:33:00,
2013-05-29 09:58:00,61.6,51.4,29.67,NE,45,3.6,3.6,69,0.00,,,0.02,WUHU216HW,2013-05-29 16:58:00,
2013-05-29 10:03:00,61.6,51.4,29.67,NE,45,3.6,3.6,69,0.00,,,0.02,WUHU216HW,2013-05-29 17:03:00,
2013-05-29 10:28:00,63.0,49.8,29.67,South,180,3.4,3.4,62,0.00,,,0.02,WUHU216HW,2013-05-29 17:28:00,
2013-05-29 10:33:00,63.0,49.8,29.67,South,180,3.4,3.4,62,0.00,,,0.02,WUHU216HW,2013-05-29 17:33:00,
2013-05-29 10:58:00,63.7,48.2,29.67,NE,45,1.8,1.8,57,0.00,,,0.02,WUHU216HW,2013-05-29 17:58:00,
2013-05-29 11:03:00,63.7,48.2,29.67,NE,45,1.8,1.8,57,0.00,,,0.02,WUHU216HW,2013-05-29 18:03:00,
2013-05-29 11:28:00,65.0,47.9,29.67,South,180,6.0,6.0,54,0.00,,,0.02,WUHU216HW,2013-05-29 18:28:00,
2013-05-29 11:33:00,65.0,47.9,29.67,South,180,6.0,6.0,54,0.00,,,0.02,WUHU216HW,2013-05-29 18:33:00,
2013-05-29 11:38:00,65.0,47.9,29.67,South,180,6.0,6.0,54,0.00,,,0.02,WUHU216HW,2013-05-29 18:38:00,
2013-05-29 11:58:00,60.7,48.9,29.70,SW,225,7.6,7.6,65,0.00,,,0.02,WUHU216HW,2013-05-29 18:58:00,
2013-05-29 12:03:00,60.7,48.9,29.70,SW,225,7.6,7.6,65,0.00,,,0.02,WUHU216HW,2013-05-29 19:03:00,
2013-05-29 12:28:00,59.2,49.9,29.71,SSW,203,5.4,5.4,71,0.00,,,0.02,WUHU216HW,2013-05-29 19:28:00,
2013-05-29 12:33:00,59.2,49.9,29.71,SSW,203,5.4,5.4,71,0.00,,,0.02,WUHU216HW,2013-05-29 19:33:00,
2013-05-29 12:58:00,58.0,50.0,29.72,SW,225,4.3,4.3,75,0.01,,,0.02,WUHU216HW,2013-05-29 19:58:00,
2013-05-29 13:03:00,58.0,50.0,29.72,SW,225,4.3,4.3,75,0.01,,,0.02,WUHU216HW,2013-05-29 20:03:00,
2013-05-29 13:28:00,57.6,50.4,29.73,SW,225,2.9,2.9,77,0.02,,,0.02,WUHU216HW,2013-05-29 20:28:00,
2013-05-29 13:33:00,57.6,50.4,29.73,SW,225,2.9,2.9,77,0.02,,,0.02,WUHU216HW,2013-05-29 20:33:00,
2013-05-29 13:38:00,57.6,50.4,29.73,SW,225,2.9,2.9,77,0.02,,,0.02,WUHU216HW,2013-05-29 20:38:00,
2013-05-29 13:58:00,58.5,49.5,29.72,SSW,203,6.0,6.0,72,0.01,,,0.04,WUHU216HW,2013-05-29 20:58:00,
2013-05-29 14:03:00,58.5,49.5,29.72,SSW,203,6.0,6.0,72,0.01,,,0.04,WUHU216HW,2013-05-29 21:03:00,
2013-05-29 14:08:00,58.5,49.5,29.72,SSW,203,6.0,6.0,72,0.01,,,0.04,WUHU216HW,2013-05-29 21:08:00,
2013-05-29 14:28:00,59.8,49.6,29.72,WSW,248,1.8,1.8,69,0.00,,,0.04,WUHU216HW,2013-05-29 21:28:00,
2013-05-29 14:33:00,59.8,49.6,29.72,WSW,248,1.8,1.8,69,0.00,,,0.04,WUHU216HW,2013-05-29 21:33:00,
2013-05-29 14:38:00,59.8,49.6,29.72,WSW,248,1.8,1.8,69,0.00,,,0.04,WUHU216HW,2013-05-29 21:38:00,
2013-05-29 14:57:00,61.0,48.8,29.73,SSW,203,8.3,8.3,64,0.00,,,0.04,WUHU216HW,2013-05-29 21:57:00,
2013-05-29 15:02:00,61.0,48.8,29.73,WSW,248,4.5,8.3,64,0.00,,,0.04,WUHU216HW,2013-05-29 22:02:00,
2013-05-29 15:08:00,61.0,48.8,29.73,WSW,248,4.5,4.5,64,0.00,,,0.04,WUHU216HW,2013-05-29 22:08:00,
2013-05-29 15:28:00,61.4,48.3,29.73,SE,135,1.8,1.8,62,0.00,,,0.04,WUHU216HW,2013-05-29 22:28:00,
2013-05-29 15:33:00,61.4,48.3,29.73,SE,135,1.8,1.8,62,0.00,,,0.04,WUHU216HW,2013-05-29 22:33:00,
2013-05-29 15:58:00,59.0,46.8,29.75,SW,225,4.0,4.0,64,0.00,,,0.04,WUHU216HW,2013-05-29 22:58:00,
2013-05-29 16:03:00,59.0,46.8,29.75,SW,225,4.0,4.0,64,0.00,,,0.04,WUHU216HW,2013-05-29 23:03:00,
2013-05-29 16:08:00,59.0,46.8,29.75,SW,225,4.0,4.0,64,0.00,,,0.04,WUHU216HW,2013-05-29 23:08:00,
2013-05-29 16:28:00,58.5,46.7,29.75,SW,225,3.4,3.4,65,0.00,,,0.04,WUHU216HW,2013-05-29 23:28:00,
2013-05-29 16:33:00,58.5,46.7,29.75,SW,225,3.4,3.4,65,0.00,,,0.04,WUHU216HW,2013-05-29 23:33:00,
2013-05-29 16:57:00,57.8,47.7,29.76,SW,225,4.5,4.5,69,0.00,,,0.04,WUHU216HW,2013-05-29 23:57:00,
2013-05-29 17:02:00,57.8,47.7,29.76,SSW,203,3.4,4.5,69,0.00,,,0.04,WUHU216HW,2013-05-30 00:02:00,
2013-05-29 17:07:00,57.8,47.7,29.76,SSW,203,3.4,3.4,69,0.00,,,0.04,WUHU216HW,2013-05-30 00:07:00,
2013-05-29 17:28:00,57.6,47.5,29.77,SSW,203,3.6,3.6,69,0.00,,,0.04,WUHU216HW,2013-05-30 00:28:00,
2013-05-29 17:33:00,57.6,47.5,29.77,SSW,203,3.6,3.6,69,0.00,,,0.04,WUHU216HW,2013-05-30 00:33:00,
2013-05-29 17:57:00,57.6,48.2,29.77,SW,225,2.2,2.2,71,0.00,,,0.04,WUHU216HW,2013-05-30 00:57:00,
2013-05-29 18:03:00,57.6,48.2,29.77,SW,225,3.6,3.6,71,0.00,,,0.04,WUHU216HW,2013-05-30 01:03:00,
2013-05-29 18:08:00,57.6,48.2,29.77,SW,225,3.6,3.6,71,0.00,,,0.04,WUHU216HW,2013-05-30 01:08:00,
2013-05-29 18:28:00,57.2,48.6,29.77,WSW,248,1.1,1.1,73,0.00,,,0.04,WUHU216HW,2013-05-30 01:28:00,
2013-05-29 18:33:00,57.2,48.6,29.77,WSW,248,1.1,1.1,73,0.00,,,0.04,WUHU216HW,2013-05-30 01:33:00,
2013-05-29 18:57:00,57.4,48.8,29.77,SW,225,0.0,0.0,73,0.00,,,0.04,WUHU216HW,2013-05-30 01:57:00,
2013-05-29 19:02:00,57.4,48.8,29.77,SW,225,0.0,0.0,73,0.00,,,0.04,WUHU216HW,2013-05-30 02:02:00,
2013-05-29 19:08:00,57.4,48.8,29.77,SW,225,0.0,0.0,73,0.00,,,0.04,WUHU216HW,2013-05-30 02:08:00,
2013-05-29 19:28:00,57.2,49.0,29.78,South,180,8.5,8.5,74,0.00,,,0.04,WUHU216HW,2013-05-30 02:28:00,
2013-05-29 19:33:00,57.2,49.0,29.78,South,180,8.5,8.5,74,0.00,,,0.04,WUHU216HW,2013-05-30 02:33:00,
2013-05-29 19:57:00,54.4,46.6,29.79,WSW,248,0.9,0.9,75,0.00,,,0.04,WUHU216HW,2013-05-30 02:57:00,
2013-05-29 20:03:00,54.4,46.6,29.79,WSW,248,1.6,1.6,75,0.00,,,0.04,WUHU216HW,2013-05-30 03:03:00,
2013-05-29 20:08:00,54.4,46.6,29.79,WSW,248,1.6,1.6,75,0.00,,,0.04,WUHU216HW,2013-05-30 03:08:00,
2013-05-29 20:28:00,53.8,46.8,29.80,SW,225,0.0,0.0,77,0.00,,,0.04,WUHU216HW,2013-05-30 03:28:00,
2013-05-29 20:33:00,53.8,46.8,29.80,SW,225,0.0,0.0,77,0.00,,,0.04,WUHU216HW,2013-05-30 03:33:00,
2013-05-29 20:57:00,53.1,47.2,29.81,NE,45,1.1,1.1,80,0.01,,,0.04,WUHU216HW,2013-05-30 03:57:00,
2013-05-29 21:01:00,53.1,47.2,29.81,NE,45,1.1,1.1,80,0.01,,,0.04,WUHU216HW,2013-05-30 04:01:00,
2013-05-29 21:02:00,53.1,47.2,29.81,NE,45,1.1,1.1,80,0.01,,,0.04,WUHU216HW,2013-05-30 04:02:00,
2013-05-29 21:07:00,53.1,47.2,29.81,NE,45,1.1,1.1,80,0.01,,,0.04,WUHU216HW,2013-05-30 04:07:00,
2013-05-29 21:28:00,52.6,47.3,29.82,NNE,23,0.0,0.0,82,0.01,,,0.05,WUHU216HW,2013-05-30 04:28:00,
2013-05-29 21:33:00,52.6,47.3,29.82,NNE,23,0.0,0.0,82,0.01,,,0.05,WUHU216HW,2013-05-30 04:33:00,
2013-05-29 21:57:00,52.6,47.5,29.83,NNE,23,0.0,0.0,83,0.00,,,0.05,WUHU216HW,2013-05-30 04:57:00,
2013-05-29 22:03:00,52.6,47.5,29.83,NNE,23,0.0,0.0,83,0.00,,,0.05,WUHU216HW,2013-05-30 05:03:00,
2013-05-29 22:28:00,52.6,47.3,29.83,SW,225,0.2,0.2,82,0.00,,,0.05,WUHU216HW,2013-05-30 05:28:00,
2013-05-29 22:33:00,52.6,47.3,29.83,SW,225,0.2,0.2,82,0.00,,,0.05,WUHU216HW,2013-05-30 05:33:00,
2013-05-29 22:57:00,52.6,47.5,29.83,SSW,203,0.2,0.2,83,0.02,,,0.05,WUHU216HW,2013-05-30 05:57:00,
2013-05-29 23:02:00,52.6,47.5,29.83,SSW,203,0.2,0.2,83,0.02,,,0.05,WUHU216HW,2013-05-30 06:02:00,
2013-05-29 23:28:00,52.4,47.3,29.84,SW,225,1.3,1.3,83,0.02,,,0.07,WUHU216HW,2013-05-30 06:28:00,
2013-05-29 23:33:00,52.4,47.3,29.84,SW,225,1.3,1.3,83,0.02,,,0.07,WUHU216HW,2013-05-30 06:33:00,
2013-05-29 23:58:00,52.2,47.8,29.85,South,180,2.5,2.5,85,0.01,,,0.00,WUHU216HW,2013-05-30 06:58:00,